Location: Fundy National Park
(45.6138°N, 65.0316°W)
Time: 11:33:01
(UTC-04:00)

BlueWalker 3 - Pass Details

Date: 05 December 2022
Orbit: 499 x 517 km, 53.2° (Epoch: 01 February)

Event Time Altitude Azimuth Distance (km) Brightness Sun altitude
Rises 17:28:39 0° 293° (WNW) 2,631 6.3 -8.9°
Maximum altitude 17:34:30 27° 6° (N) 1,009 3.2 -9.8°
Enters shadow 17:37:07 14° 58° (ENE) 1,480 3.7 -10.2°
